Find Starlink 35573

NORAD ID: 66116 Int'l Des: 2025-237 Owner: SPXS Country: US Constellation: starlink operational
LEOCIRCULAR

当前视图

正在加载3D地球...

关于 Starlink 35573

正在加载描述...

即将过境

Passes for default location (London). Set your location on the main map for personalized predictions.

高度历史

Loading altitude history...

两行轨道根数

1 66116U 25237C 26146.41944419 .00014972 00000-0 51642-3 0 9998
2 66116 53.1611 38.4120 0001369 85.6661 274.4497 15.30210743 34514
Epoch: May 26, 2026 • Age: 12 hours

当前状态

高度 475.7 km
速度 7.63 km/s
星下点 2.55°N, 2.64°E
发射日期 Oct 22, 2025
运行时间 0.5 years
类型 internet

技术详情

分类 Payload
质量 575.00 kg
干质量 530.00 kg
总质量 575.00 kg
长度 0.30 m
直径 4.10 m
跨度 29.00 m
形状 Box + pan
制造商 SPXS
平台类型 Starlink V2MO
阶段状态 In Orbit
所有者/国家 SPXS/US

Most Searched